GFSSE_sfc_dewp_096.txt.gz
Dewpoint
67 70 72 72 72 71 71 71 72 72 72 72 72 72 72 72 72 72 71 71 71 71 71 70 71 71 71 70 71 71 70 69 69 69 69 68 67 67 68 68 67 65 68
67 70 71 72 72 71 71 71 71 72 72 72 72 71 71 71 71 71 71 71 71 71 69 70 71 70 69 70 70 70 69 69 68 68 69 68 67 67 67 67 67 65 67
67 69 71 71 71 71 71 71 71 72 72 72 72 71 71 71 71 71 70 70 70 70 69 68 70 69 69 69 69 69 68 68 67 67 67 65 64 67 67 66 67 66 66
68 69 69 71 71 71 71 71 70 72 71 72 72 71 71 71 71 71 70 69 70 70 69 69 69 69 69 69 68 68 67 66 66 65 63 64 64 66 66 65 65 64 64
67 68 69 70 71 71 71 71 71 71 71 71 70 69 68 69 71 70 69 70 69 70 68 68 69 68 68 67 67 66 66 65 64 62 62 63 63 65 65 64 63 63 62
68 67 68 69 70 72 72 71 71 71 71 67 67 66 66 67 67 68 69 69 69 69 69 68 68 68 67 66 66 65 64 63 61 59 60 62 61 64 63 61 62 62 61
68 67 67 68 69 71 72 72 71 71 69 67 66 65 65 65 64 65 66 67 68 69 69 68 68 67 67 66 65 63 62 61 58 58 60 60 60 63 62 60 59 59 59
67 67 68 69 69 70 71 71 70 70 67 66 65 65 65 64 64 64 63 67 67 67 67 67 67 67 66 65 64 62 61 60 58 58 59 60 62 62 61 60 58 58 58
66 66 66 67 69 69 69 69 69 69 66 66 66 65 65 64 64 63 65 67 67 67 67 67 66 66 65 63 62 61 60 60 55 57 58 60 62 60 60 59 58 59 57
63 64 64 64 65 65 67 67 67 67 66 66 66 65 64 64 65 64 66 65 66 67 66 66 65 64 63 62 61 60 59 59 55 56 57 58 61 60 59 57 58 58 58
61 62 64 64 64 64 65 66 66 66 65 65 65 64 63 62 64 64 64 66 65 65 65 65 64 63 61 61 60 60 57 54 54 55 57 61 60 59 58 58 57 57 57
59 61 62 64 64 64 65 65 65 65 64 63 62 62 61 63 63 65 65 65 64 64 64 64 63 62 58 55 57 58 54 54 53 53 54 59 57 58 57 58 57 56 57
59 60 61 62 64 64 63 63 64 65 63 62 62 62 61 62 64 64 65 64 64 64 62 61 60 56 52 52 53 54 54 53 53 53 57 60 59 58 58 58 57 57 57
59 60 60 60 61 62 63 63 64 64 64 63 63 62 62 62 62 63 64 64 62 61 59 57 55 53 51 52 53 53 53 53 54 54 56 59 59 58 58 58 57 57 56
58 59 59 59 60 60 62 62 63 63 64 63 63 62 62 62 62 63 62 62 60 59 57 54 52 51 50 51 53 53 53 53 54 54 54 59 59 59 57 58 57 57 56
59 59 58 58 59 60 60 60 62 62 62 63 63 62 63 62 62 61 61 59 58 56 55 53 50 50 50 51 52 52 53 53 54 55 55 56 58 59 59 57 57 57 56
58 58 58 58 58 59 58 60 61 62 63 63 63 62 63 62 62 60 59 58 56 54 51 51 49 50 49 51 52 53 53 53 54 55 55 55 56 58 58 58 57 56 56
58 58 58 59 58 58 57 58 59 60 63 63 63 62 63 62 62 59 58 56 53 51 51 51 49 49 49 51 52 52 53 53 54 54 55 55 55 55 57 58 58 57 56
58 58 58 58 58 58 59 60 58 60 62 63 63 62 62 63 61 59 57 53 51 49 52 50 49 49 50 50 51 52 53 53 53 53 54 54 54 54 55 58 58 57 57
57 57 57 57 58 59 60 59 59 59 60 61 62 62 62 62 60 59 56 53 48 51 53 51 49 51 50 50 49 51 52 53 53 53 53 53 53 53 53 54 55 54 56
57 56 56 57 58 58 58 57 56 56 57 58 60 62 62 62 61 58 57 55 47 52 52 51 49 49 50 50 49 50 51 52 52 52 53 52 52 52 53 53 53 53 53
56 56 56 57 57 57 57 56 56 56 55 56 57 58 62 62 61 59 57 56 49 53 51 50 49 49 49 49 47 47 46 47 49 51 52 52 52 52 52 52 52 52 52
55 55 55 56 56 57 56 56 55 54 54 54 55 56 57 61 60 59 56 56 53 52 50 50 48 47 47 49 48 47 45 45 46 47 50 52 52 52 52 52 51 51 51
55 55 56 56 56 56 56 55 53 53 52 53 53 54 56 58 59 58 57 56 54 52 50 50 49 48 47 46 48 52 52 50 46 44 47 49 51 51 52 52 51 51 51
55 55 56 56 55 56 55 54 53 53 52 53 52 53 54 56 57 56 56 55 53 52 51 52 51 50 49 50 48 50 51 52 52 49 45 46 48 49 51 52 52 52 52
55 55 55 56 54 55 54 54 53 52 52 52 51 52 53 55 55 55 54 54 53 52 53 51 53 51 52 51 51 51 49 49 50 50 49 48 46 47 48 49 50 52 53

GFSSE_sfc_dewp_099.txt.gz
Dewpoint
68 70 71 72 72 72 72 71 71 71 72 73 73 72 72 72 72 72 72 72 72 71 71 71 72 71 70 70 70 70 69 68 67 69 69 68 68 68 68 67 68 65 68
68 71 71 72 72 72 71 72 71 72 72 72 72 72 72 72 72 72 72 71 72 71 70 70 72 71 70 70 70 70 69 69 68 68 68 67 67 67 67 67 67 66 67
68 71 70 71 71 71 71 71 72 72 72 72 72 72 72 72 72 72 71 70 70 69 69 69 70 70 70 70 70 69 69 69 68 68 67 65 63 66 67 67 67 66 66
68 70 70 71 71 71 71 71 72 72 72 72 71 72 72 71 72 71 71 71 70 69 68 69 69 69 69 69 69 69 68 68 67 67 64 64 64 66 66 66 65 65 65
67 69 70 70 70 71 71 71 71 71 71 71 71 71 71 71 70 71 70 70 70 70 68 69 69 69 69 68 67 67 67 66 66 64 63 63 63 65 65 65 64 63 64
67 68 68 70 70 71 71 71 71 71 71 70 70 70 71 71 70 70 70 70 70 70 69 69 69 68 67 67 66 66 65 64 63 62 63 63 62 64 63 63 63 63 63
67 66 67 68 70 71 72 71 71 71 69 69 68 69 69 70 70 69 69 69 68 68 68 69 68 67 67 66 65 64 63 63 60 61 61 61 61 63 63 62 61 61 61
67 66 67 69 70 71 71 71 70 70 68 67 67 67 67 68 68 68 69 68 68 68 68 67 67 66 66 65 64 63 62 62 60 59 60 60 63 62 61 59 60 60 60
66 66 66 67 68 69 69 69 69 68 67 67 66 66 65 65 65 66 67 67 68 67 67 67 66 66 65 64 63 62 61 61 58 59 60 60 63 61 61 59 59 59 59
65 65 65 65 66 67 69 68 68 67 66 66 66 66 66 65 65 65 65 66 67 67 65 66 65 65 63 63 62 61 60 60 57 58 59 60 61 61 60 60 59 60 59
63 63 63 63 63 63 66 67 68 67 66 66 66 66 65 63 63 63 65 65 66 66 64 66 65 63 61 61 61 60 58 56 56 57 58 61 60 58 58 60 59 59 58
60 61 63 62 62 63 65 65 65 67 66 65 65 64 62 60 62 64 65 65 66 65 65 65 64 61 60 59 58 58 54 54 56 56 58 61 61 60 59 60 58 58 57
59 61 62 62 62 63 63 63 65 64 63 63 63 62 61 62 62 63 63 64 64 63 63 62 61 54 57 56 55 54 54 53 54 55 58 60 60 58 59 58 58 58 56
58 60 60 61 61 61 62 62 64 64 63 62 62 61 60 62 62 63 63 62 62 63 61 61 57 52 53 53 54 54 53 53 54 54 57 59 60 58 60 59 58 57 56
58 59 60 60 61 62 61 61 63 63 63 62 62 61 61 61 62 63 63 63 63 62 59 58 55 51 52 53 54 53 53 53 53 54 56 59 59 60 58 58 58 58 57
58 59 59 59 60 60 61 60 61 62 62 62 62 61 61 62 62 62 62 62 62 61 58 56 53 51 52 53 53 53 53 54 54 54 55 57 58 59 59 58 57 57 57
58 59 58 58 59 60 60 60 60 61 62 62 62 62 62 62 61 62 61 60 60 59 56 54 52 51 51 52 52 53 53 54 54 54 55 56 57 58 59 59 58 56 56
58 58 58 59 58 58 58 58 59 62 62 62 63 62 62 62 61 60 61 59 58 57 53 52 50 50 52 52 52 52 53 53 54 54 55 55 55 55 58 58 58 58 56
58 58 58 58 57 57 57 57 57 61 62 63 62 62 62 62 61 60 59 58 56 55 52 51 50 50 51 52 52 52 53 53 54 54 54 54 54 55 55 58 58 58 58
58 58 58 58 57 57 58 58 58 60 61 62 63 62 62 62 60 59 58 56 54 52 52 50 49 50 51 52 51 52 52 53 54 54 54 54 54 54 54 55 56 55 57
58 57 57 57 58 58 57 57 57 58 58 60 62 62 61 62 60 59 57 55 52 51 51 49 49 50 50 52 51 51 51 52 52 53 53 53 53 53 53 53 54 53 54
57 56 56 56 57 57 57 56 56 56 56 58 59 60 62 62 60 58 57 55 47 50 51 49 49 50 49 51 50 49 48 49 50 52 52 52 52 53 52 52 53 52 52
56 56 56 56 56 56 56 55 55 55 55 55 56 58 59 62 60 59 57 55 47 52 51 48 49 49 48 49 50 48 46 47 48 49 51 52 52 52 52 52 52 52 52
55 56 56 56 55 55 56 54 54 53 53 53 54 55 57 59 61 59 58 55 49 54 51 49 49 49 49 47 48 51 51 50 48 45 48 51 52 52 52 52 52 52 51
55 55 56 55 55 56 55 53 53 53 53 53 53 54 56 57 60 59 57 54 52 55 52 50 50 50 49 50 48 50 51 52 51 46 44 46 50 51 52 52 52 52 51
54 55 55 55 55 55 54 53 52 53 52 52 52 53 54 55 57 58 57 55 55 55 53 52 52 50 51 51 50 51 50 50 50 50 48 47 47 49 51 52 52 52 52

GFSSE_sfc_dewp_102.txt.gz
Dewpoint
67 69 71 72 72 72 72 71 72 72 73 73 72 72 72 72 72 72 72 72 72 72 72 72 72 72 71 70 70 70 69 69 70 70 69 68 68 68 68 68 68 66 69
68 70 71 71 72 72 71 72 72 72 73 73 72 72 72 72 72 72 72 72 72 72 71 71 72 71 70 70 70 69 68 69 68 68 69 68 68 68 68 68 68 67 69
68 70 70 71 72 72 72 72 72 73 73 73 72 72 72 72 72 72 72 71 71 72 71 70 71 70 70 70 70 70 69 69 68 68 68 64 65 67 67 68 68 68 67
69 69 70 71 71 71 71 72 72 72 72 72 72 72 72 72 72 72 72 70 70 71 71 70 70 70 70 69 69 69 69 68 68 67 64 64 64 67 67 67 67 67 66
68 69 70 70 70 71 71 72 72 71 72 72 72 72 72 72 72 72 71 70 69 69 70 69 69 70 69 69 68 68 68 67 66 64 64 64 63 65 66 66 66 65 66
67 69 69 69 70 71 71 72 72 71 71 71 71 72 72 72 72 71 70 69 68 69 69 68 69 69 68 67 67 67 66 66 64 63 63 64 63 65 65 64 65 64 65
66 66 68 69 70 71 71 71 71 71 70 70 71 71 71 71 70 69 69 69 68 68 69 69 69 68 67 66 66 65 65 64 62 61 61 62 62 64 64 63 63 64 63
65 65 67 70 70 70 71 70 70 69 70 69 70 70 70 70 70 69 69 68 68 68 68 68 67 68 66 66 65 64 64 63 61 60 60 61 64 63 62 62 62 61 61
65 64 65 67 69 70 69 69 69 68 68 68 68 69 68 68 68 69 69 68 67 67 68 68 67 66 66 64 64 63 62 62 60 60 60 61 64 62 61 61 60 60 60
64 64 64 65 66 68 69 68 68 68 67 67 66 66 65 65 66 66 67 67 67 67 67 66 66 65 64 63 63 62 62 61 59 60 60 61 63 61 61 60 60 58 57
65 64 64 64 64 65 66 68 68 68 66 66 66 66 65 64 64 64 65 65 66 65 65 65 65 64 63 63 62 61 59 58 58 59 59 63 62 60 61 58 59 59 58
64 64 63 63 62 62 65 67 67 68 66 66 65 65 64 63 63 64 64 64 65 64 64 64 63 63 61 59 59 58 56 57 57 58 59 62 61 60 60 60 58 58 59
63 63 63 61 61 61 65 66 66 66 66 66 65 64 63 62 63 64 63 64 64 63 63 63 61 59 58 58 56 55 55 55 56 57 59 61 61 59 60 60 59 59 59
58 61 61 61 60 61 64 64 64 63 64 64 64 62 62 62 61 63 63 63 63 62 62 62 58 57 57 56 54 54 54 54 55 56 59 61 61 60 59 59 59 57 58
57 59 60 61 61 61 62 62 63 63 63 62 62 62 61 61 61 62 63 62 63 63 62 57 56 56 55 54 54 54 54 54 55 55 57 59 59 60 60 59 59 57 59
57 57 59 60 61 62 62 62 62 63 63 62 62 61 61 61 62 62 63 62 62 61 61 56 55 54 54 54 53 54 54 54 55 55 56 58 59 60 59 58 58 58 58
56 58 59 59 60 62 62 61 62 62 63 62 62 61 61 60 61 63 62 61 61 61 59 55 54 54 53 53 53 53 54 54 54 55 56 57 57 58 59 59 59 57 57
56 58 59 60 59 61 62 61 61 61 62 62 62 61 61 61 62 62 61 61 61 60 58 55 53 53 53 53 52 53 54 54 54 55 56 56 56 56 58 59 59 59 57
55 58 58 59 59 59 58 60 61 61 61 61 62 61 61 62 61 61 61 60 61 58 57 55 53 54 52 52 52 53 53 54 54 54 55 55 56 56 56 58 58 58 58
55 58 58 58 58 57 57 58 59 60 61 61 61 61 62 62 60 60 59 58 58 57 56 55 53 54 52 52 52 52 53 54 54 54 54 54 55 55 55 56 57 56 57
56 57 58 58 57 57 58 58 58 59 59 60 61 62 62 62 60 59 57 56 57 55 54 53 53 53 53 53 52 51 51 53 53 53 54 54 54 54 55 55 55 55 56
56 57 58 57 57 58 58 59 57 57 57 59 61 62 62 62 60 59 57 56 55 55 53 52 52 52 52 52 50 50 49 50 52 52 53 53 53 54 54 54 54 54 53
55 56 57 57 57 57 57 57 55 55 55 56 57 59 61 61 60 59 57 56 54 55 53 52 52 51 51 52 51 50 48 47 49 51 52 53 53 53 53 53 53 53 53
55 56 56 56 57 57 56 55 54 53 52 54 55 57 58 60 60 59 57 55 54 53 52 50 50 51 51 50 51 50 51 51 49 46 49 52 52 52 52 52 53 53 53
55 55 56 56 56 56 55 55 54 53 53 54 54 55 56 57 60 59 57 56 52 52 52 49 50 50 51 51 49 51 51 52 49 46 46 47 51 52 52 52 52 52 52
55 55 55 55 55 55 54 54 53 52 53 53 53 54 55 56 58 60 58 56 53 54 53 49 52 51 52 51 50 51 50 49 50 49 47 47 48 49 52 53 53 53 53

GFSSE_sfc_dewp_105.txt.gz
Dewpoint
66 68 70 70 71 72 72 72 73 73 72 73 73 73 73 73 73 73 73 72 72 72 72 72 72 72 71 71 71 70 71 70 70 70 70 69 69 69 69 69 69 66 70
67 69 70 69 69 72 72 72 73 73 73 73 73 73 72 73 73 72 72 72 72 72 71 72 72 72 71 71 70 70 70 69 69 69 69 69 69 69 69 69 68 67 69
68 69 70 70 71 71 71 72 73 73 73 73 73 73 73 73 72 72 72 72 71 72 71 71 72 71 71 70 70 69 69 69 69 69 68 65 65 68 68 69 69 69 69
68 69 70 70 71 71 71 72 73 73 73 73 73 73 73 72 72 72 72 71 71 72 71 70 71 70 70 70 69 69 69 69 68 67 62 64 64 68 68 67 68 68 68
67 68 69 70 71 71 71 71 72 72 72 72 72 73 73 72 72 71 71 70 71 71 71 70 70 70 69 69 68 68 68 68 67 63 61 63 62 66 67 67 67 67 67
68 68 69 69 70 71 71 71 71 72 71 72 72 72 72 72 72 71 70 70 70 70 70 71 70 70 69 68 68 68 67 66 65 62 62 64 63 66 66 66 67 67 66
68 69 69 69 70 71 71 72 71 71 71 71 71 72 72 72 71 70 69 68 69 69 69 70 70 69 68 68 67 66 66 65 62 62 63 63 63 65 65 64 64 65 65
68 70 70 69 70 70 70 71 70 70 70 70 71 71 71 71 70 69 68 68 68 68 69 69 69 68 67 67 66 65 65 64 63 62 62 62 65 64 64 63 64 64 63
68 69 70 70 70 69 69 69 69 69 69 69 70 69 69 69 68 69 68 68 68 68 67 69 68 67 67 66 65 64 63 64 62 61 60 61 65 64 63 62 61 61 61
67 68 68 71 71 71 71 68 68 68 68 68 69 68 67 67 68 67 68 68 68 68 67 67 67 66 66 64 64 63 62 63 61 61 60 61 64 62 62 61 60 60 60
66 67 68 68 70 70 71 70 68 68 67 67 67 67 66 68 67 67 66 66 66 66 68 67 66 65 64 64 63 62 62 61 61 60 60 63 63 61 61 61 59 59 60
65 66 66 67 68 69 69 70 69 69 69 68 68 68 68 68 67 66 66 65 66 66 66 66 65 64 63 63 63 61 60 61 60 60 60 63 63 61 59 60 58 57 59
64 66 65 66 68 68 68 68 69 69 68 68 68 67 66 65 66 66 66 65 66 66 66 64 64 64 62 62 60 59 60 60 59 59 60 62 62 61 60 59 59 59 59
63 64 64 66 67 67 67 67 67 68 67 67 66 67 66 65 64 65 64 64 64 65 65 63 64 62 60 60 58 59 59 58 58 57 59 61 62 61 60 60 60 60 59
61 63 64 66 66 65 65 66 66 66 65 65 66 65 66 65 64 65 64 64 64 65 65 62 60 60 59 58 57 58 58 58 58 56 56 60 61 61 60 60 59 58 59
59 60 63 65 65 64 64 63 65 64 64 64 65 65 65 66 65 63 64 64 64 64 64 60 59 59 58 57 56 56 57 57 57 57 56 59 60 60 60 60 59 58 59
58 59 60 63 65 64 64 63 63 64 65 63 63 63 64 65 63 62 63 64 63 61 61 59 58 58 58 56 55 56 56 56 56 56 56 56 58 59 60 60 59 59 59
56 57 59 60 63 64 63 62 63 64 64 64 63 63 63 63 62 63 63 62 62 60 58 58 57 57 57 56 55 55 55 55 56 56 55 56 57 55 57 59 59 59 58
53 56 58 60 62 63 63 62 62 63 63 63 64 63 63 62 62 62 63 62 61 59 57 57 57 56 56 55 54 54 55 54 55 55 55 56 56 55 54 58 58 58 58
41 54 58 60 61 62 62 61 62 62 62 63 63 62 62 62 61 62 62 61 61 59 57 57 56 56 55 55 52 53 54 54 55 55 55 55 55 56 56 56 56 55 57
48 55 58 60 61 61 60 59 60 60 61 61 62 62 62 62 62 62 61 60 60 58 56 56 56 55 56 55 53 53 54 55 55 54 55 55 55 56 57 57 56 55 55
51 57 58 59 60 61 60 61 61 60 60 60 62 61 61 62 62 60 59 57 58 58 56 55 55 55 55 54 52 51 50 52 53 54 55 55 56 55 55 56 56 56 55
55 57 57 58 58 60 60 60 59 58 58 59 59 60 61 62 61 60 58 57 56 55 55 55 56 55 53 54 54 51 49 49 51 53 55 54 55 55 54 55 55 55 55
52 57 57 57 58 59 59 58 57 56 55 56 57 59 61 62 60 59 58 57 57 56 55 55 56 55 55 53 54 51 54 53 49 49 52 53 54 54 55 54 54 55 55
51 56 57 57 57 58 58 58 57 56 55 56 56 57 60 61 61 59 57 57 56 56 55 56 55 55 55 55 53 51 51 53 53 49 46 49 52 52 53 54 53 54 54
54 56 56 56 56 57 57 57 56 55 55 54 54 54 57 57 59 60 57 57 56 55 55 55 56 55 55 55 54 52 51 50 50 50 47 49 50 52 53 53 54 54 54

GFSSE_sfc_dewp_108.txt.gz
Dewpoint
59 65 70 71 71 72 73 73 73 73 73 73 73 73 73 73 73 73 73 73 73 73 72 72 72 72 71 70 71 71 71 71 71 71 70 70 70 70 69 70 69 66 70
60 66 69 69 71 72 72 73 73 73 73 73 73 73 73 73 73 73 73 73 72 73 71 71 72 72 71 71 71 71 71 70 70 70 70 69 69 69 69 69 69 68 69
63 67 69 69 71 72 72 73 73 73 73 73 73 73 73 73 73 73 72 72 72 72 71 71 71 72 71 71 70 70 70 70 69 69 69 64 66 69 69 69 69 69 69
64 68 69 69 71 72 72 73 73 73 73 73 73 73 73 73 73 73 72 72 72 72 72 71 71 71 71 70 70 70 70 69 69 68 62 63 64 68 68 68 68 68 69
64 67 68 69 71 71 72 72 73 73 73 73 73 73 73 73 73 72 72 71 72 72 71 71 70 71 70 69 69 69 69 68 67 65 60 63 62 66 67 68 68 68 67
63 65 69 69 70 71 71 72 73 73 72 72 72 73 73 73 73 72 71 71 70 70 71 71 71 70 69 68 68 68 67 66 65 57 60 62 62 67 67 67 67 67 67
64 66 70 69 70 71 71 72 72 72 72 72 72 72 72 72 71 71 70 70 70 70 70 71 70 69 68 68 68 67 66 66 60 58 61 63 65 67 67 66 66 67 66
67 69 70 70 70 70 71 71 71 71 71 71 71 72 72 71 70 70 69 69 69 69 70 70 69 68 68 68 67 66 65 65 60 59 60 62 66 66 66 65 65 66 65
68 69 71 71 70 69 69 70 69 69 70 70 70 70 71 70 69 69 69 69 67 68 68 69 69 67 67 67 66 65 64 65 61 61 60 62 66 64 64 63 62 63 64
67 68 69 70 70 70 70 68 68 68 69 69 70 69 68 68 68 68 68 67 67 68 68 68 67 67 66 66 65 64 64 64 60 60 60 62 65 64 63 62 62 62 61
65 65 67 68 69 69 69 69 68 68 68 68 69 68 66 69 67 68 66 66 67 67 67 67 67 66 65 64 64 64 63 60 60 59 61 64 65 63 62 62 61 61 60
63 64 64 67 67 68 66 69 69 69 69 69 69 68 68 67 67 64 65 66 66 66 66 66 66 65 64 64 64 64 64 61 59 59 61 64 64 62 62 61 60 60 59
59 61 63 67 68 68 66 65 68 70 69 70 69 69 68 68 68 67 67 64 64 65 62 66 66 65 64 64 63 64 64 61 58 57 61 63 63 62 62 59 59 60 60
57 60 64 66 67 68 65 65 65 68 70 69 69 70 68 67 67 67 67 63 63 62 64 64 65 65 64 63 63 63 62 59 55 57 60 62 63 61 61 60 59 60 60
56 60 63 66 68 67 67 64 64 66 68 69 68 69 69 66 66 66 66 66 63 64 65 64 65 63 62 62 62 61 59 57 56 54 58 62 62 62 61 60 60 60 60
54 58 63 65 68 67 67 67 66 66 65 67 68 67 68 67 66 66 66 64 64 64 65 65 64 63 62 61 60 59 58 57 57 55 56 58 61 62 61 61 60 59 60
51 55 61 65 67 67 66 66 65 64 65 66 66 66 67 67 66 66 66 65 64 65 65 65 63 63 62 60 59 58 57 57 56 55 56 56 58 60 60 61 60 59 59
46 50 57 59 64 66 65 64 63 64 65 65 65 65 66 65 66 65 65 65 65 65 64 62 60 59 59 59 59 57 56 56 55 54 56 57 56 55 59 60 60 60 60
40 46 52 59 62 64 65 64 64 65 65 65 64 64 64 64 65 64 64 64 64 62 61 60 59 58 58 58 58 56 56 55 54 51 53 54 56 56 56 59 59 60 60
35 41 47 54 60 62 65 65 63 64 64 64 64 63 64 64 63 64 64 64 62 59 58 58 58 58 57 57 57 55 57 54 54 53 52 53 54 56 56 56 56 55 58
45 46 46 52 59 60 63 62 61 62 62 62 64 63 63 63 64 63 63 63 61 58 57 58 57 56 57 58 57 57 56 55 54 54 53 51 53 54 56 55 53 51 55
49 50 51 54 58 60 61 61 61 62 62 62 63 64 63 63 63 62 62 62 60 58 58 58 57 56 56 57 55 54 52 53 55 54 52 52 55 53 53 54 54 53 53
48 51 51 54 57 60 61 61 61 62 62 62 62 62 62 62 62 62 62 61 60 59 57 57 57 55 54 56 57 54 50 49 52 54 53 50 56 53 52 53 54 53 54
49 51 53 54 56 58 60 60 60 59 58 59 60 61 62 62 62 62 62 61 59 59 57 56 57 56 55 55 56 57 54 52 49 50 53 51 52 53 53 51 52 53 53
48 54 55 55 56 58 59 60 60 59 58 59 59 59 60 62 62 62 60 58 57 57 57 57 57 56 56 55 55 54 54 53 52 49 48 48 49 50 51 52 51 52 53
48 52 56 56 56 58 59 60 60 60 58 57 57 58 58 60 61 61 59 58 57 57 56 57 57 56 56 56 56 55 54 52 51 49 47 49 47 49 49 51 53 52 52

GFSSE_sfc_dewp_111.txt.gz
Dewpoint
55 67 71 72 72 72 73 73 73 73 73 73 73 73 73 73 73 74 73 73 73 73 73 72 72 71 71 70 72 72 72 71 71 71 71 71 70 69 69 70 69 67 70
56 65 70 71 72 72 72 73 73 73 73 73 73 73 73 73 73 73 73 73 73 73 72 72 71 71 71 71 71 71 71 71 70 70 71 70 69 69 69 69 69 68 70
60 66 69 71 72 72 72 73 73 73 73 73 73 73 73 73 73 73 73 72 73 73 72 71 71 71 71 71 71 71 71 70 70 70 70 64 66 69 69 70 70 70 69
60 66 67 70 71 72 73 73 73 73 73 73 73 73 73 73 73 73 72 71 72 73 72 71 71 71 71 71 70 70 70 70 69 69 64 63 64 69 69 69 69 69 69
59 64 67 70 71 72 73 73 73 73 73 73 73 73 73 73 73 73 71 71 72 72 72 71 71 71 71 70 69 69 69 69 69 66 62 64 63 67 68 68 68 68 67
58 60 68 69 70 71 72 73 73 73 72 72 72 73 73 73 73 72 71 71 72 72 72 72 71 70 69 69 69 69 68 68 67 62 58 63 63 67 67 68 68 67 67
60 64 70 69 70 71 72 72 73 73 72 72 72 72 72 73 72 71 71 71 71 71 71 70 70 69 69 68 68 67 67 66 61 59 59 62 65 67 67 67 67 67 67
62 66 71 70 70 71 71 71 71 71 72 72 72 72 72 72 71 71 71 71 70 70 70 70 69 69 68 68 67 66 65 65 61 60 62 64 67 67 67 67 66 67 66
65 68 71 71 70 70 70 70 70 70 71 71 71 71 70 70 69 70 70 69 69 69 69 70 69 68 68 68 66 65 65 65 60 61 61 64 66 66 66 65 65 65 65
65 67 69 70 70 69 70 69 69 69 69 70 70 70 69 68 69 69 68 68 68 68 69 69 68 67 67 67 65 64 64 64 62 60 61 62 66 65 65 63 63 63 63
63 64 66 67 68 69 69 69 69 69 69 69 70 69 68 68 67 67 67 67 67 67 68 68 67 66 66 65 65 64 64 60 62 61 62 65 66 64 63 62 62 62 62
60 60 62 65 66 67 65 69 68 68 69 68 68 69 70 68 67 66 65 67 66 66 66 67 66 65 65 66 65 64 66 65 62 63 62 65 65 64 63 62 62 61 61
57 57 58 64 67 66 64 64 65 68 67 68 69 68 68 67 69 67 68 68 68 65 62 64 65 64 64 65 65 65 65 66 65 62 62 64 64 63 62 62 61 60 61
52 56 58 61 65 67 63 62 62 67 67 68 67 71 70 70 68 67 65 66 66 64 62 64 66 65 65 64 65 64 64 64 65 63 62 63 64 63 62 61 60 60 60
45 53 58 62 65 66 67 63 63 67 67 67 67 68 68 66 67 66 66 65 64 63 63 65 65 65 64 64 64 63 63 63 63 61 60 62 62 63 61 59 61 60 60
42 48 58 61 66 66 66 66 65 65 67 68 68 67 69 67 67 69 67 66 65 65 65 66 66 63 64 64 63 62 62 61 60 60 59 59 61 62 62 60 60 60 61
40 44 58 62 67 67 65 65 65 63 64 65 66 68 68 68 67 67 67 67 66 65 65 66 65 65 64 63 62 62 62 60 56 58 57 58 60 60 61 61 62 61 60
40 44 49 57 64 67 67 65 65 63 64 63 65 67 67 68 68 66 65 66 67 67 66 65 65 63 63 61 61 61 60 58 57 57 56 56 58 57 60 61 61 61 61
35 42 46 57 61 65 67 65 66 65 63 63 63 64 66 66 67 65 63 65 67 65 65 64 62 62 60 60 60 60 59 57 57 52 55 56 57 56 56 59 60 60 60
34 39 44 49 58 63 64 66 63 63 63 63 63 64 65 65 65 65 64 65 65 64 63 62 60 60 59 59 59 59 59 59 54 53 56 56 56 57 57 57 58 57 59
41 41 41 44 53 60 60 61 63 63 63 63 62 63 63 63 64 64 63 63 64 62 60 60 59 59 58 59 58 58 58 58 57 53 53 53 56 56 56 56 56 55 56
44 45 47 47 48 52 57 59 64 62 62 63 63 63 63 64 63 63 63 63 61 60 60 59 58 57 57 59 57 56 53 55 57 54 53 52 55 54 54 55 55 54 54
46 47 47 48 49 53 57 61 63 63 62 62 63 63 63 63 62 64 63 63 61 60 58 58 57 56 55 57 58 55 52 51 54 56 55 51 56 54 54 55 55 53 53
46 48 51 50 50 52 58 60 61 60 59 60 61 61 62 63 62 62 63 62 61 59 58 58 59 57 56 55 57 58 56 54 51 52 54 52 55 54 56 54 53 52 53
42 47 52 54 53 53 55 60 61 60 60 60 60 61 61 62 62 62 62 62 61 59 58 57 57 56 56 55 55 55 56 55 54 51 49 49 50 51 51 53 52 54 54
42 48 51 53 54 54 56 59 61 60 60 58 59 59 59 62 62 62 62 62 61 60 58 57 57 57 56 55 56 56 55 54 52 52 51 50 49 51 50 52 53 53 53

GFSSE_sfc_dewp_114.txt.gz
Dewpoint
65 69 72 72 73 73 73 73 73 73 73 73 73 73 73 74 74 73 73 74 74 74 73 72 73 72 71 71 72 72 72 72 71 71 71 71 70 70 70 70 70 68 70
65 68 71 72 73 73 73 73 73 73 73 73 73 73 73 73 73 73 73 73 73 74 73 72 72 71 71 71 71 71 71 71 70 71 71 71 70 69 70 70 70 69 70
64 68 69 71 72 72 72 73 73 74 73 73 73 73 73 73 73 73 73 73 73 73 72 72 71 71 71 71 71 71 71 70 70 70 69 66 68 70 70 70 70 70 69
66 67 69 71 72 72 73 73 74 74 73 73 73 73 73 73 73 73 72 72 73 73 72 71 71 71 71 71 70 70 70 70 70 69 66 65 66 69 70 69 69 69 69
64 65 69 70 71 72 73 73 73 73 73 73 73 73 73 73 73 73 72 71 72 73 72 71 71 71 71 70 70 70 69 69 69 67 63 64 65 68 69 69 69 68 68
61 66 68 70 71 72 73 73 73 73 72 73 73 73 73 73 73 72 71 71 72 73 72 72 71 70 70 69 69 69 68 68 68 65 63 65 65 68 68 68 68 68 68
66 70 69 69 70 71 73 73 73 73 72 72 73 73 73 73 72 72 71 71 71 71 71 70 70 70 69 69 69 68 67 67 65 62 62 65 66 67 67 67 68 67 67
71 71 69 70 70 71 72 72 72 72 72 72 72 72 72 72 71 71 71 71 70 70 70 69 69 69 68 68 68 67 66 66 62 66 64 65 67 67 67 67 67 67 66
70 71 70 70 70 70 70 70 70 71 71 71 71 71 71 70 70 70 70 70 69 69 69 69 68 68 68 68 67 66 65 64 64 64 64 64 67 67 66 67 66 66 65
67 71 70 70 70 70 70 69 69 70 70 70 71 70 70 69 69 69 69 69 68 68 68 69 68 67 67 67 66 65 64 64 63 64 63 64 67 67 66 65 65 64 64
66 67 70 69 69 70 69 69 69 69 69 69 70 70 68 70 69 69 68 67 68 68 68 69 67 67 66 66 65 64 64 62 64 63 64 65 66 66 65 65 64 64 63
63 64 66 68 68 69 66 69 69 69 69 70 70 70 69 70 69 67 67 67 67 66 67 67 67 66 65 65 64 64 64 65 64 65 64 65 65 65 64 63 63 63 63
61 61 62 68 69 68 66 68 68 68 68 68 69 69 70 69 68 67 68 67 67 66 65 66 65 65 65 65 64 64 64 64 64 65 64 64 65 64 64 63 63 62 62
57 58 59 65 68 68 66 66 67 66 68 68 68 69 69 69 68 68 67 67 66 66 64 64 64 63 64 64 64 64 63 64 64 65 64 64 64 64 64 63 62 62 61
52 57 58 63 67 68 69 66 67 68 68 68 68 69 68 68 68 68 67 66 65 65 63 64 64 64 64 64 63 64 63 63 63 62 63 62 62 64 63 62 62 61 60
46 54 60 61 66 67 68 68 66 69 68 68 68 68 69 68 68 67 67 66 66 66 65 65 65 64 64 64 63 63 63 62 63 63 63 62 62 62 62 61 61 61 61
44 47 61 63 66 67 68 67 68 67 68 67 68 68 68 69 68 67 67 66 66 66 64 65 64 64 64 63 62 62 62 62 62 62 62 61 60 61 61 61 61 61 61
40 44 59 60 66 67 67 67 65 66 67 68 67 67 68 68 68 67 66 66 66 65 65 64 64 63 63 62 62 62 61 61 62 62 60 59 59 59 60 61 61 62 62
35 47 51 63 67 68 68 67 67 67 67 65 66 66 67 67 67 66 65 65 66 65 64 64 63 62 62 62 61 61 61 61 61 59 57 58 59 59 58 61 61 61 61
35 46 52 61 64 68 67 67 67 66 65 65 65 65 66 64 67 66 64 65 65 65 64 63 62 63 61 61 61 60 61 61 60 57 55 57 57 58 58 59 59 59 60
46 46 48 52 63 65 65 66 65 65 64 64 64 65 64 64 66 65 64 64 64 63 62 62 61 60 59 60 59 59 59 60 59 57 56 57 56 57 58 57 58 58 58
44 50 51 51 52 58 62 62 64 64 64 63 64 64 64 65 65 63 64 63 63 62 61 61 59 58 58 60 57 56 54 56 57 57 57 56 55 55 57 57 56 56 56
49 52 50 50 51 54 54 60 63 65 64 62 62 62 64 64 64 64 63 63 62 61 60 60 59 57 56 58 59 56 52 51 54 56 55 55 55 55 55 55 56 55 55
50 52 51 53 53 53 57 57 63 62 61 61 62 62 63 64 63 63 63 62 61 61 59 59 59 58 57 56 57 57 56 55 52 51 54 55 54 53 54 56 55 54 54
48 52 53 55 55 55 56 59 63 61 61 61 61 61 62 62 62 62 63 62 60 60 59 58 58 57 57 56 56 55 55 55 55 52 49 52 54 53 54 55 54 54 53
48 51 53 53 51 56 57 59 62 61 60 60 61 60 61 62 62 63 62 62 61 59 59 58 58 57 57 57 56 55 54 53 53 53 50 52 52 52 53 54 55 53 54

GFSSE_sfc_dewp_117.txt.gz
Dewpoint
67 71 71 72 73 73 73 73 72 73 73 73 73 73 73 73 73 73 74 74 74 74 73 73 73 72 72 71 72 72 72 71 71 72 71 71 70 70 71 71 70 69 71
68 71 71 72 72 72 73 73 72 73 73 73 73 73 73 73 73 73 73 74 74 74 73 72 72 71 71 71 72 72 71 71 71 71 71 71 71 70 70 71 70 70 70
69 70 71 71 72 72 73 73 73 73 74 73 73 73 73 73 73 73 73 73 74 74 73 72 71 71 71 71 71 71 71 70 70 70 70 68 68 70 70 71 70 70 70
68 69 70 71 71 72 72 73 73 74 74 73 73 73 73 73 73 73 72 72 72 73 73 72 71 71 71 71 70 70 70 70 69 69 67 66 67 70 70 69 70 69 69
67 69 70 70 71 72 72 73 73 73 73 73 73 73 73 73 73 73 72 72 73 73 73 72 72 71 71 70 69 69 69 69 68 66 65 65 66 69 69 69 69 69 68
66 68 69 69 71 72 73 73 73 72 71 72 73 73 73 73 73 72 71 71 73 73 73 72 72 71 69 69 69 69 68 67 66 64 65 67 66 68 68 68 68 68 68
67 68 69 69 70 72 73 73 73 71 71 72 72 73 73 73 72 71 71 71 71 71 72 71 71 70 69 68 68 68 67 66 65 64 64 65 67 68 67 67 68 68 67
67 68 69 70 70 71 72 72 72 71 71 72 72 72 72 72 71 71 70 71 71 70 70 70 69 69 69 68 68 66 66 65 64 65 66 65 67 67 68 67 67 67 67
69 68 68 69 70 70 70 70 70 71 71 71 71 71 71 70 70 71 70 70 69 69 69 69 69 68 68 68 67 66 65 65 63 64 61 66 68 67 67 67 67 66 66
69 68 68 68 68 67 68 69 69 70 70 69 70 70 70 69 69 69 69 69 69 68 68 68 68 68 67 67 66 65 64 64 63 65 65 65 67 67 67 66 66 65 64
69 69 68 68 68 67 67 69 69 70 69 69 70 68 69 69 69 69 68 68 68 67 68 67 67 67 66 66 65 65 64 62 63 65 65 65 67 67 66 66 65 64 64
65 68 68 68 68 68 68 68 67 69 69 69 69 68 69 69 68 68 68 67 67 67 67 67 67 66 65 64 63 64 63 64 64 64 64 65 66 66 66 65 64 64 63
63 66 68 68 68 68 67 67 68 68 68 68 68 68 67 69 68 67 67 66 66 66 66 66 65 65 64 63 62 62 62 64 64 63 63 64 65 65 65 65 64 64 63
62 62 66 67 67 67 66 67 67 67 67 67 67 67 68 67 66 66 66 65 65 64 64 64 64 63 64 63 63 62 63 64 63 63 64 64 64 65 65 64 64 63 63
60 60 63 66 67 66 65 67 67 67 67 67 67 67 68 67 66 66 65 65 65 64 63 64 63 63 63 63 63 63 62 62 62 62 63 63 63 64 65 64 64 63 62
59 59 60 63 66 65 65 65 65 66 67 67 67 67 67 67 66 66 65 65 65 65 64 64 63 63 63 62 62 63 62 62 62 62 62 62 62 63 64 64 63 63 62
45 57 58 63 65 65 64 66 65 67 67 67 67 67 67 67 66 66 65 64 65 64 63 64 63 62 62 63 62 64 62 61 62 63 63 63 62 61 62 63 63 62 61
36 53 58 62 65 66 65 64 65 67 67 66 67 67 67 67 67 66 65 64 64 63 63 63 62 62 62 62 60 60 61 61 62 62 63 62 62 60 60 62 62 62 62
36 38 58 62 64 65 66 66 65 65 67 67 66 67 65 67 66 65 65 64 64 63 62 62 61 61 62 61 60 62 61 61 61 62 62 61 60 59 58 60 60 60 61
30 38 58 62 64 65 66 66 65 65 65 65 66 66 65 65 66 65 65 64 64 62 61 62 61 60 61 61 61 61 60 60 61 61 61 60 59 58 58 59 60 60 60
38 44 56 64 65 66 65 65 64 64 64 63 64 65 66 65 66 66 64 64 65 63 62 62 62 61 60 60 60 59 60 60 60 60 60 59 58 58 58 59 59 60 59
42 46 46 58 65 66 65 64 64 64 64 63 63 64 64 64 65 65 65 63 63 62 62 62 60 59 59 61 58 56 54 56 59 60 59 58 58 57 58 58 58 58 58
44 44 45 48 51 60 64 63 63 62 62 61 61 62 63 63 64 64 64 63 62 61 60 60 60 59 57 59 59 56 53 51 55 58 58 57 56 56 57 57 57 57 57
44 48 48 51 51 52 53 59 61 61 59 60 61 61 62 64 64 64 64 63 61 60 60 60 60 59 57 56 58 58 55 55 53 52 56 57 56 55 56 57 56 56 56
45 48 50 51 51 52 53 55 61 60 61 60 60 60 60 63 64 64 63 62 61 60 59 59 59 58 58 57 57 57 55 55 55 53 51 54 56 56 55 56 56 56 55
46 47 47 47 48 50 53 54 61 60 60 59 60 60 61 61 63 62 63 62 61 60 59 59 59 58 58 57 57 56 55 54 53 53 52 53 53 54 54 55 55 55 55

GFSSE_sfc_dewp_120.txt.gz
Dewpoint
68 70 72 73 73 72 72 72 72 72 73 73 73 73 73 73 73 74 74 74 74 74 72 72 72 73 72 71 72 72 71 70 71 71 72 71 71 71 71 71 71 69 71
69 70 71 72 73 73 72 72 72 73 73 73 73 73 73 73 73 74 74 74 74 73 72 72 72 72 72 72 72 71 71 71 70 71 71 71 71 71 70 70 70 70 70
69 70 71 71 72 73 73 73 73 73 73 73 73 73 73 73 73 73 74 74 74 73 72 72 72 71 71 71 71 70 71 70 70 70 70 67 69 70 70 70 70 70 69
69 70 70 71 71 72 72 73 73 73 73 73 73 73 73 73 73 73 73 73 73 73 72 72 72 71 71 71 70 70 70 70 69 68 67 68 68 69 70 70 69 69 69
69 69 70 70 71 72 72 72 73 73 73 73 73 73 73 73 73 72 72 72 72 72 73 72 71 71 70 70 69 69 69 69 68 66 65 67 67 68 69 69 69 69 69
68 68 69 69 70 72 72 73 73 73 72 72 72 73 73 73 73 72 71 72 72 72 73 72 72 70 69 69 69 69 68 67 66 65 65 67 67 68 69 69 69 68 68
67 68 69 69 70 72 73 73 72 72 72 72 72 72 73 73 72 71 71 72 72 72 72 71 71 69 69 68 68 68 67 66 64 65 65 65 67 69 69 68 68 68 68
66 68 69 70 70 71 72 72 71 70 71 71 72 72 72 72 71 71 70 71 71 71 71 70 69 69 68 68 68 67 66 65 65 65 65 65 67 68 67 68 68 67 67
66 67 68 69 70 70 70 70 69 70 70 70 71 71 71 70 70 70 70 70 70 70 70 69 69 68 68 68 67 65 65 65 63 61 65 66 68 67 68 67 67 66 66
66 67 67 67 68 69 70 69 69 69 69 70 70 70 69 69 69 69 69 70 70 69 69 69 68 68 68 67 66 65 64 64 63 61 64 66 68 67 67 67 66 65 65
66 66 67 67 66 66 68 70 69 69 69 69 70 70 68 69 68 69 68 68 69 68 68 68 68 67 66 66 66 64 64 62 63 64 64 66 67 67 67 66 65 65 64
65 65 66 66 66 66 68 69 69 70 70 69 69 68 69 68 67 68 68 67 68 67 67 67 67 66 66 64 64 64 63 63 63 63 64 65 67 67 67 66 65 64 63
66 66 66 66 66 66 66 67 68 68 67 68 68 67 67 68 67 67 66 66 66 67 66 66 65 65 64 63 61 62 62 63 63 63 63 65 66 67 67 66 65 64 63
67 67 67 67 67 67 67 66 67 67 67 67 68 67 67 67 66 66 65 65 65 64 64 64 63 63 62 62 61 61 62 62 62 61 63 64 65 66 66 66 65 64 63
64 66 67 67 67 67 67 66 66 66 66 66 67 67 67 67 67 65 65 65 64 63 63 63 62 62 62 62 62 61 62 61 62 61 61 63 64 65 66 65 65 65 63
61 63 66 67 67 66 66 67 66 66 66 66 66 67 67 67 66 65 65 65 64 63 63 63 62 62 62 62 61 62 61 61 61 61 62 63 62 63 65 65 64 64 64
60 61 64 66 67 66 66 67 66 66 67 66 66 66 67 67 66 65 65 64 64 64 63 62 61 61 61 61 61 61 62 61 61 60 61 62 63 62 63 64 64 64 63
59 60 61 65 66 66 65 65 65 66 67 67 66 67 66 66 66 65 65 64 64 64 63 63 62 61 61 61 59 60 62 62 61 61 62 62 62 63 62 63 63 63 63
44 58 59 62 65 65 64 65 65 66 66 66 66 66 67 66 66 66 65 64 63 63 62 62 61 61 61 61 61 61 61 61 61 62 62 62 61 62 61 61 61 61 62
29 48 58 61 63 65 65 64 65 66 66 66 66 66 66 67 66 66 65 64 64 62 61 61 61 58 61 62 61 61 61 61 61 60 61 62 61 60 59 59 60 60 60
30 38 57 59 62 65 65 64 63 64 65 65 66 66 66 66 66 65 65 65 65 63 61 61 61 61 61 61 59 59 60 60 60 60 61 61 60 59 59 59 59 59 59
39 44 58 60 63 64 65 65 65 64 63 64 65 65 66 65 65 66 65 64 65 63 61 61 61 60 59 61 58 56 54 57 59 60 60 60 60 59 58 58 59 59 59
45 52 62 65 65 65 65 64 63 62 61 61 61 63 65 65 65 65 65 64 64 63 62 62 61 60 58 60 59 56 53 52 55 59 59 59 59 59 58 58 58 58 58
46 50 51 55 57 57 61 62 60 62 61 61 62 63 63 64 64 64 64 63 63 63 62 61 61 60 59 57 59 58 56 55 52 52 57 58 58 57 57 57 57 57 57
45 46 47 47 48 52 54 56 61 60 61 60 60 61 62 63 64 64 64 63 63 62 61 61 60 59 59 57 57 57 56 55 55 53 52 55 57 57 57 57 57 56 56
45 45 45 45 45 48 50 52 56 58 59 59 59 60 60 61 64 64 64 63 62 61 60 60 59 59 58 58 57 58 56 55 54 54 52 54 54 56 57 58 57 56 56

GFSSE_sfc_dewp_123.txt.gz
Dewpoint
67 70 72 72 73 72 72 72 72 72 72 73 73 73 73 73 73 74 74 73 73 73 72 72 73 73 72 71 72 71 71 71 71 72 72 71 71 71 71 71 71 69 70
67 70 71 72 72 72 72 72 72 72 73 73 73 73 73 73 73 73 73 73 73 72 72 72 72 71 71 71 71 71 71 71 70 70 71 71 71 71 71 70 70 69 70
68 70 71 72 72 72 72 72 72 73 73 73 73 73 73 73 73 73 73 73 73 73 72 72 72 71 71 71 71 71 71 71 70 70 70 68 68 70 70 70 70 70 70
68 69 70 71 72 72 72 72 72 73 73 73 73 73 73 73 73 73 73 73 73 73 72 72 71 71 71 71 70 70 70 70 69 69 68 68 67 70 70 70 70 69 69
68 69 70 70 71 72 72 72 72 73 72 72 72 73 73 73 73 73 73 72 73 73 72 71 71 70 70 69 70 70 69 68 68 66 65 66 67 68 69 69 69 69 69
68 69 69 69 70 72 72 72 72 72 72 72 72 73 73 72 72 72 72 71 73 73 72 71 70 70 69 69 69 69 67 67 66 65 66 68 66 68 69 69 69 69 68
68 68 69 69 70 71 72 72 72 72 71 71 72 72 72 72 72 71 71 71 71 72 72 72 70 69 68 68 68 68 66 66 64 65 65 65 67 69 69 68 68 68 68
67 68 68 70 70 71 71 72 71 71 71 71 71 72 72 72 71 70 71 71 71 71 71 70 69 69 68 68 67 66 65 65 65 64 65 65 67 68 69 68 68 68 67
66 67 68 69 70 70 70 70 69 70 70 70 70 70 71 70 70 70 70 71 70 70 70 69 68 68 68 68 67 65 64 65 63 64 65 66 68 68 68 67 66 66 67
66 66 68 69 69 70 70 69 68 69 69 69 70 70 69 69 69 69 69 70 70 70 70 69 68 67 67 67 66 65 64 64 61 63 64 65 68 68 68 67 66 66 65
64 66 67 68 68 68 69 69 69 69 69 69 69 69 68 68 68 69 68 68 69 68 68 68 68 67 66 66 65 64 64 63 59 62 63 66 68 67 68 67 66 65 64
63 64 66 67 66 67 67 69 69 69 70 70 70 69 68 67 67 68 68 68 68 67 67 67 67 66 66 64 64 64 62 62 62 62 63 66 67 67 67 67 66 65 64
62 64 65 66 66 67 67 67 67 68 68 69 68 67 68 67 67 67 66 67 66 67 66 65 65 64 64 63 62 61 61 62 62 61 62 65 67 67 67 67 65 64 64
62 63 65 65 65 66 67 66 66 66 66 66 68 66 67 68 67 65 66 65 65 65 64 64 63 63 62 62 61 61 61 61 61 61 62 64 66 67 66 66 65 64 64
63 63 64 65 65 65 65 66 66 65 66 66 66 67 67 67 67 66 64 64 64 63 63 62 62 62 61 61 61 61 61 61 61 61 61 63 64 66 66 66 65 64 64
64 64 64 65 65 65 65 65 65 66 66 66 66 67 67 67 67 65 64 64 63 63 63 63 62 61 61 61 60 60 61 61 60 60 61 62 63 64 65 66 65 65 64
63 65 66 64 64 65 65 64 64 65 65 65 66 66 67 66 66 65 64 64 64 63 62 61 60 60 60 61 60 60 60 60 60 60 60 60 61 61 63 64 65 65 64
60 62 65 66 65 65 65 66 65 65 65 65 65 66 66 66 66 65 64 64 63 63 62 62 61 59 59 60 59 60 61 61 60 60 59 60 61 62 62 63 64 64 64
59 60 63 65 66 66 65 66 66 65 66 66 65 65 65 66 66 65 64 64 63 63 62 62 60 60 60 60 60 60 61 61 61 61 61 60 60 62 63 62 62 62 62
54 59 61 64 65 66 66 65 64 64 65 65 66 66 65 66 66 65 64 63 63 62 62 61 61 60 61 61 61 61 61 61 61 61 61 62 61 62 62 62 62 61 61
34 51 59 61 64 65 65 64 63 64 65 65 66 66 66 66 65 65 65 63 64 63 61 61 60 61 61 62 59 59 60 61 61 61 61 61 61 61 60 61 61 60 60
30 34 55 59 61 64 64 64 64 65 64 65 65 66 66 66 66 65 64 64 64 64 62 61 62 60 61 61 59 57 55 57 59 60 61 61 61 61 60 60 59 59 59
34 39 50 56 59 63 64 64 62 62 61 61 62 64 65 65 66 65 65 64 63 63 62 61 62 61 59 60 59 56 53 51 54 59 59 60 60 60 60 59 59 58 58
49 55 56 57 59 62 63 62 61 61 60 62 63 64 64 64 65 65 64 64 64 64 63 62 63 62 60 59 59 58 56 54 52 52 57 59 60 59 59 59 59 58 58
45 46 47 49 50 52 56 59 60 60 61 61 60 61 62 64 64 64 65 64 64 64 63 63 62 61 60 59 58 57 55 53 55 53 52 55 58 59 59 59 58 58 58
43 43 44 45 45 47 50 50 51 51 54 58 59 60 60 61 63 64 64 64 64 63 62 62 61 61 60 59 59 57 56 55 54 54 52 54 55 57 58 59 58 57 57

GFSSE_sfc_dewp_129.txt.gz
Dewpoint
64 68 72 73 73 72 72 72 73 73 73 73 73 73 73 73 73 73 73 73 73 73 73 72 73 73 73 72 72 71 71 71 71 72 72 72 71 71 71 71 71 67 71
66 69 71 72 72 72 72 72 73 73 73 74 73 73 73 73 73 73 73 73 73 73 71 72 73 72 71 72 72 71 71 71 71 71 71 71 71 71 70 70 70 70 71
68 69 71 71 72 72 72 72 73 73 74 74 73 73 73 73 73 73 73 73 73 73 71 71 71 71 71 72 71 71 71 71 70 70 70 68 69 70 70 70 70 71 70
68 69 71 71 72 72 72 72 72 73 74 73 73 73 73 73 73 73 73 73 73 73 72 71 71 71 71 71 71 71 71 70 70 69 66 67 67 70 70 70 70 70 70
68 69 70 71 71 72 72 72 72 72 72 73 73 73 73 73 73 73 73 72 72 73 72 71 71 71 71 70 70 70 70 69 68 66 66 67 67 69 70 69 70 69 68
68 69 70 70 71 71 72 72 72 72 72 72 72 73 73 73 73 73 72 72 72 72 72 71 71 71 70 69 69 69 68 68 67 66 66 67 67 69 69 69 69 69 69
69 70 71 69 70 71 72 72 71 71 71 71 72 72 73 73 73 72 72 72 72 72 71 71 70 70 69 68 68 67 67 67 66 66 66 66 67 69 69 69 69 68 68
69 70 71 70 70 71 71 71 70 70 70 71 71 72 72 72 72 71 72 72 71 71 71 70 69 69 68 68 67 66 66 66 66 66 67 66 68 69 68 68 68 68 68
69 70 71 71 71 70 70 70 69 69 70 70 70 70 71 70 70 71 71 71 71 71 70 69 68 68 68 67 66 66 65 66 65 65 65 65 69 68 68 67 67 67 67
68 69 70 71 71 71 71 69 68 68 69 69 70 69 69 69 69 70 70 70 70 70 69 68 68 67 68 67 66 65 65 65 64 65 64 64 68 68 68 67 67 66 67
66 67 68 69 70 71 70 70 69 69 68 68 69 69 68 70 70 70 69 69 69 69 68 68 67 67 66 66 65 65 64 62 64 64 64 66 68 67 68 67 66 67 66
64 66 66 68 68 69 67 69 70 70 69 69 70 70 70 70 70 69 69 68 69 68 68 67 67 66 66 67 66 64 64 64 64 64 64 66 68 67 68 66 66 66 66
62 64 65 67 68 67 66 68 69 69 69 69 70 70 70 70 70 69 70 69 70 68 67 65 66 65 67 66 66 66 65 65 63 64 63 65 68 67 67 67 67 66 65
59 63 65 66 66 67 66 66 67 67 68 68 68 69 69 68 69 69 68 69 69 68 68 67 67 66 66 66 66 66 65 64 63 63 63 63 66 67 67 68 67 66 65
57 61 64 64 65 65 66 66 66 67 67 67 68 68 69 67 68 68 68 68 68 68 67 67 66 65 65 65 65 65 64 64 65 64 64 62 64 66 67 67 66 66 65
57 59 64 63 64 64 65 66 66 66 67 67 67 68 68 67 67 67 68 68 68 68 67 66 66 64 64 64 65 64 64 63 64 64 64 63 62 64 65 66 66 66 66
58 58 62 64 63 64 64 65 65 65 65 66 66 67 68 68 67 67 66 67 68 69 68 67 67 66 65 64 64 64 64 64 63 63 63 64 62 62 62 64 65 66 66
57 59 61 63 64 64 64 64 64 65 65 65 65 65 67 67 67 67 66 66 68 68 68 67 66 65 65 64 64 64 63 64 63 63 62 62 62 63 63 63 64 64 65
53 61 60 63 64 65 65 64 64 65 64 64 64 64 66 66 66 66 65 66 68 67 67 66 66 66 64 63 63 63 63 63 63 62 62 63 62 62 63 63 62 62 63
49 62 62 62 64 65 65 65 64 64 64 64 63 64 65 64 65 65 66 66 67 66 66 66 65 65 64 64 62 61 62 63 63 64 63 62 61 62 62 62 64 63 61
46 61 64 63 63 63 63 63 63 63 63 64 64 66 66 65 64 65 66 66 66 65 64 64 65 64 63 63 61 61 62 62 62 63 62 61 61 62 62 62 63 64 62
39 58 63 64 63 62 61 62 64 64 64 63 65 65 65 66 66 66 66 66 65 64 64 64 64 63 63 63 61 60 58 60 61 62 63 61 62 62 62 62 62 62 63
41 48 60 63 64 64 63 64 64 65 65 65 64 63 64 65 66 66 66 65 65 65 64 64 64 64 62 62 62 61 57 54 57 60 60 61 61 62 62 62 62 62 62
41 46 57 62 64 65 66 65 64 62 61 63 63 65 65 66 66 66 66 66 66 65 65 64 64 65 64 61 62 61 58 58 55 54 58 59 59 60 61 61 61 61 62
51 49 56 61 63 65 66 65 65 65 65 65 66 64 65 66 65 65 64 64 65 65 66 65 64 64 65 64 62 61 59 57 57 56 54 56 59 59 60 60 61 61 62
46 49 52 52 50 53 58 63 65 64 64 64 64 63 64 64 61 60 60 61 64 65 65 65 65 64 64 64 64 62 60 58 56 57 56 56 55 57 59 61 61 61 62

GFSSE_sfc_dewp_132.txt.gz
Dewpoint
59 67 72 72 73 72 73 73 73 73 73 73 73 73 73 73 74 74 74 74 73 74 72 72 73 74 73 71 72 73 72 73 72 73 72 72 71 71 71 70 70 67 71
61 68 72 72 72 72 73 73 73 73 73 73 73 73 73 73 74 74 73 74 74 74 71 71 73 74 72 72 72 72 72 72 72 72 72 71 71 69 70 69 69 69 71
63 68 72 71 72 72 73 73 74 74 74 74 73 73 73 74 74 73 73 73 73 73 72 71 72 72 71 72 72 72 72 71 71 71 71 65 65 70 70 70 71 70 71
65 69 70 71 71 72 72 73 74 74 74 73 73 73 74 74 73 73 73 73 73 73 72 71 72 72 72 72 71 71 71 70 69 69 65 63 63 70 70 70 70 69 70
65 68 70 71 71 72 72 73 73 73 73 73 73 74 74 74 73 73 73 72 73 73 72 71 72 71 71 70 70 70 70 69 69 68 61 64 64 68 69 69 69 69 69
66 66 70 70 71 71 72 72 73 73 72 72 72 73 74 74 73 73 72 72 73 73 72 72 71 71 70 69 69 69 69 68 68 60 61 65 64 69 69 70 70 69 68
67 68 71 69 70 71 72 72 72 72 72 72 72 72 73 73 73 72 72 72 72 72 72 72 71 70 69 69 68 68 68 67 62 60 61 63 67 69 69 69 69 69 68
68 70 71 70 70 71 71 71 71 71 71 71 72 72 72 72 72 72 72 72 72 72 71 70 70 69 68 68 68 67 67 67 62 61 61 62 69 69 69 68 69 68 68
70 71 72 71 71 70 70 70 69 70 70 71 71 71 71 71 71 71 71 72 71 71 70 69 69 68 68 67 67 66 66 66 62 61 59 61 68 69 68 68 67 68 67
68 70 71 71 71 71 71 69 68 69 69 70 70 70 70 70 70 70 71 71 71 70 69 69 68 68 67 66 66 66 65 65 60 61 61 64 68 67 68 67 67 67 67
67 68 69 69 69 70 70 70 69 69 69 69 70 69 68 69 70 71 69 70 70 69 68 68 68 67 67 66 65 65 65 59 60 60 60 66 68 67 68 67 67 67 66
65 66 67 68 68 69 66 70 69 68 68 69 69 70 68 68 68 68 68 69 69 68 68 67 67 66 66 64 65 65 61 61 61 61 60 67 68 67 67 67 67 66 66
61 63 65 68 69 68 66 67 66 67 67 67 69 69 68 67 68 68 68 69 68 68 65 65 66 64 64 63 62 63 62 63 60 60 61 66 67 67 67 66 66 66 66
53 61 63 65 67 68 64 66 68 67 66 66 67 70 68 67 68 68 67 67 67 66 65 63 62 63 64 64 64 64 64 62 60 61 62 64 66 67 67 67 66 66 66
44 59 62 65 66 67 67 65 67 67 67 67 67 70 68 67 68 67 67 66 66 66 64 65 63 63 64 64 63 63 63 63 63 60 60 63 64 66 67 67 66 66 66
41 52 61 63 66 65 65 66 67 68 67 67 67 69 70 68 68 67 67 66 68 67 65 64 64 63 62 62 63 63 63 61 62 62 60 61 62 64 65 66 66 66 66
34 50 56 63 65 66 66 66 66 66 66 67 67 68 69 69 68 68 67 66 66 68 67 65 65 64 62 62 62 63 62 63 61 62 61 60 61 61 63 65 65 66 66
28 34 52 58 63 65 65 64 64 64 66 66 67 68 69 68 68 68 67 67 66 69 67 66 65 64 63 62 62 61 62 62 63 63 62 61 60 59 61 63 64 65 65
21 32 42 58 62 64 65 64 65 65 66 66 67 66 68 68 68 67 66 67 68 68 67 66 65 65 63 62 61 62 63 63 62 61 62 62 62 61 60 62 63 63 63
20 27 36 53 62 64 65 65 64 63 65 64 64 65 67 67 68 67 66 66 67 65 66 66 66 65 64 63 60 62 63 63 62 63 62 61 61 62 62 61 63 61 61
30 29 31 45 62 64 64 64 63 63 63 63 63 64 65 66 67 67 66 66 68 65 65 66 65 65 65 64 64 63 63 64 64 62 62 62 60 61 61 61 60 62 61
30 32 31 38 58 62 63 63 63 63 61 62 63 64 64 65 66 66 66 65 66 64 66 65 65 65 65 65 62 62 60 61 63 63 61 60 61 60 60 61 61 62 62
31 34 30 32 53 61 62 63 62 63 61 60 60 61 64 65 66 66 66 65 65 65 65 65 65 64 63 64 64 60 59 55 56 60 61 60 60 60 61 60 62 61 62
29 32 31 34 48 59 62 61 61 60 58 58 60 60 61 64 65 66 67 66 67 66 65 65 65 65 65 62 64 64 62 59 54 54 57 60 59 59 61 61 61 61 62
27 30 34 35 43 57 62 62 62 61 60 59 60 62 65 65 65 65 66 67 66 66 65 65 64 65 66 65 63 63 63 61 59 56 53 56 58 58 59 60 59 60 61
45 45 44 42 43 56 63 63 64 62 61 63 65 66 65 66 66 67 65 64 64 62 61 62 65 65 65 66 65 64 62 60 59 58 56 56 57 57 58 58 59 59 61

GFSSE_sfc_dewp_135.txt.gz
Dewpoint
56 67 72 73 73 73 73 73 73 73 73 73 74 73 74 74 74 74 74 74 74 74 73 73 72 72 72 71 72 72 73 73 73 73 72 71 70 70 71 70 70 67 71
58 69 71 72 73 73 73 73 73 73 73 74 74 73 73 74 74 74 74 74 74 73 72 72 73 73 71 71 72 72 73 72 72 72 72 71 70 70 70 70 69 69 71
58 69 71 71 72 73 74 74 73 73 73 74 73 73 73 74 74 74 73 74 74 73 71 72 72 71 71 72 72 72 72 71 71 71 72 63 63 69 69 71 71 70 70
60 69 69 71 72 73 73 73 73 74 74 73 73 73 73 74 73 73 73 73 73 73 72 71 71 71 71 72 71 71 71 71 70 70 66 65 62 69 70 70 70 69 69
62 68 68 71 71 72 73 73 73 73 73 73 73 73 74 74 73 73 73 73 73 73 72 71 72 71 71 70 70 70 70 69 69 67 63 65 63 68 69 69 69 69 69
63 66 70 70 71 72 73 73 73 73 73 73 73 73 74 73 73 73 72 73 73 73 73 72 71 71 70 70 70 69 69 68 69 65 67 64 65 69 69 69 69 69 68
64 67 71 70 70 71 73 73 73 72 72 72 73 73 73 73 73 72 72 72 73 73 73 72 71 70 69 69 69 69 68 68 64 57 59 62 67 69 69 69 69 69 69
66 69 72 70 70 71 72 72 72 71 71 72 72 72 73 73 72 72 72 72 72 72 71 71 70 69 69 69 68 68 67 68 61 60 63 65 69 69 69 69 69 69 68
68 69 73 71 70 70 70 70 70 70 71 71 71 71 72 71 71 71 71 71 71 71 70 70 69 68 68 68 67 67 66 67 64 59 61 66 69 69 69 68 68 68 68
68 69 72 70 69 69 70 69 69 69 70 70 71 70 70 70 70 71 71 71 71 70 70 69 68 68 68 67 66 66 66 66 62 59 64 65 68 68 68 67 67 68 67
66 67 69 69 69 69 68 68 69 69 69 70 70 70 69 69 70 70 69 70 70 69 69 68 68 67 66 66 66 66 66 59 62 61 65 67 68 66 67 67 68 68 67
56 65 66 68 68 68 65 68 68 68 69 70 70 71 69 68 68 67 67 69 70 68 68 68 68 67 66 63 64 64 61 63 58 62 65 67 68 66 67 67 67 67 66
39 59 64 67 69 68 66 65 65 66 66 67 69 70 69 67 69 67 70 69 68 68 66 66 66 65 64 64 63 63 61 61 61 62 64 67 68 67 66 67 67 66 66
29 44 63 65 67 70 64 63 64 64 66 66 66 72 69 68 70 70 67 67 67 65 63 64 63 63 64 65 65 64 63 61 60 60 64 66 67 68 66 66 66 65 66
26 34 55 65 68 67 69 64 64 65 65 66 67 70 69 67 70 68 68 67 66 65 63 64 61 62 63 64 62 64 64 62 62 60 63 64 65 67 67 66 66 65 66
26 31 46 61 68 66 67 68 66 67 66 66 66 69 71 69 70 69 67 68 67 67 63 66 62 63 63 62 63 64 63 63 63 63 59 62 63 64 66 67 66 66 66
24 30 41 60 66 67 67 67 65 65 65 65 64 70 71 70 70 69 68 68 67 68 67 66 66 63 61 59 63 64 62 62 62 62 60 60 61 62 64 66 66 67 66
20 25 33 40 62 67 67 66 64 63 66 64 65 66 70 71 69 69 68 68 68 68 67 64 62 65 64 59 59 60 61 63 64 65 63 63 59 61 61 64 65 65 65
23 25 28 41 55 65 66 65 66 66 66 65 66 64 69 69 70 68 66 67 69 66 67 65 63 66 62 62 62 61 60 59 61 61 62 64 63 61 61 62 63 63 64
25 29 30 34 43 64 66 66 65 65 66 65 66 65 68 68 69 69 66 68 68 67 67 66 65 65 62 62 59 61 64 64 61 59 59 61 62 63 63 62 63 61 62
31 30 33 36 43 53 63 64 64 64 64 64 64 66 66 68 68 68 66 67 67 66 67 67 67 64 63 63 64 64 64 64 63 61 59 58 62 61 61 62 62 62 61
42 35 35 35 38 38 61 64 64 64 64 64 64 66 66 68 68 67 67 65 66 65 66 68 66 65 65 65 62 61 59 60 61 62 61 60 62 61 60 61 62 62 62
46 44 31 32 35 38 44 63 63 64 64 64 62 62 65 66 67 67 67 67 66 66 64 67 66 65 63 65 65 60 57 54 54 61 62 61 62 60 60 60 60 62 63
45 46 39 32 32 36 40 59 63 61 60 61 61 62 62 65 65 66 66 68 67 66 64 67 66 65 65 62 65 64 64 62 56 57 59 60 60 60 62 60 60 61 62
42 46 46 36 31 36 39 56 63 63 62 61 60 62 63 66 67 66 66 67 68 68 66 66 66 65 65 64 62 63 64 64 63 61 55 58 59 58 59 60 60 60 61
39 42 48 49 32 36 39 53 63 64 63 59 61 61 62 64 65 67 67 67 68 67 66 65 65 64 65 64 65 64 62 61 60 59 58 58 58 59 59 60 62 62 61

GFSSE_sfc_dewp_141.txt.gz
Dewpoint
68 71 72 73 73 73 72 72 72 72 73 74 73 73 73 73 74 74 74 74 74 74 72 72 73 73 73 72 72 72 72 72 72 72 72 72 71 71 72 71 71 69 72
69 71 72 73 73 73 73 72 72 72 73 74 73 73 73 73 73 73 73 73 74 74 72 72 73 73 72 72 72 71 72 72 71 71 72 72 71 70 71 71 71 70 72
68 71 72 72 73 73 73 73 73 73 73 73 73 73 73 73 73 73 73 73 73 74 72 72 73 71 71 72 72 72 71 71 71 71 71 67 69 71 70 71 71 71 71
68 70 71 72 72 73 73 73 73 73 73 73 73 73 73 73 73 73 73 73 73 73 73 72 72 71 72 71 71 71 71 70 70 68 67 66 67 70 70 70 71 70 70
68 69 71 71 72 73 73 73 73 73 73 73 73 73 73 73 73 73 73 72 72 73 73 72 72 71 71 70 70 70 70 69 68 66 66 66 67 69 69 70 70 70 69
68 69 70 70 71 72 73 73 73 72 72 72 72 73 74 73 73 73 72 72 72 73 73 72 72 71 69 69 69 69 68 68 66 63 65 67 67 69 69 69 69 69 68
69 69 70 70 71 72 73 73 72 72 72 72 72 72 73 73 73 72 72 72 72 73 73 72 71 69 69 68 68 67 67 67 65 67 65 66 67 70 69 70 69 69 69
70 70 70 71 71 71 72 72 71 71 71 71 72 72 72 72 72 71 71 72 72 72 71 70 69 69 68 68 67 67 66 66 64 67 67 67 69 69 69 69 69 68 68
71 69 69 70 71 71 71 71 70 70 70 71 71 71 71 71 71 71 71 71 72 71 70 69 69 68 68 67 67 66 65 66 63 67 66 67 70 69 69 68 69 69 68
72 71 69 69 69 69 70 70 69 70 70 70 70 70 70 70 70 70 70 71 71 70 69 69 68 67 67 66 66 65 65 65 62 65 66 67 68 69 69 68 69 68 68
68 71 70 69 68 69 69 70 70 70 70 69 70 70 69 70 70 70 70 70 70 69 69 68 67 67 66 65 65 65 65 62 64 65 65 67 69 69 69 69 69 68 67
36 67 69 68 67 67 67 69 69 70 70 70 70 70 70 70 70 70 69 69 69 69 68 67 67 66 65 64 64 64 63 62 64 64 65 67 69 69 68 69 68 68 67
18 27 60 69 68 67 66 68 69 70 70 70 70 70 70 69 69 69 69 69 69 68 67 67 66 65 64 64 64 63 63 62 63 64 64 66 68 68 68 67 68 68 67
18 21 33 54 69 68 67 67 67 68 69 70 70 70 70 69 68 67 68 69 68 67 66 66 65 65 64 63 64 63 62 63 64 64 65 65 67 69 68 67 67 67 67
34 31 28 38 53 69 69 68 66 66 68 69 69 70 69 68 68 67 68 69 68 67 65 65 65 65 64 64 64 63 63 63 64 65 64 64 66 67 68 67 67 66 66
38 40 43 44 38 55 68 68 68 66 67 67 68 69 69 68 67 67 68 68 67 66 65 64 64 64 63 63 63 63 63 62 63 63 63 64 64 66 67 68 67 67 66
37 40 43 44 46 50 66 67 68 69 68 67 67 68 69 67 67 67 68 68 67 66 64 64 63 63 63 63 62 63 62 62 60 62 63 63 63 63 64 66 67 67 67
36 38 40 43 45 47 49 63 67 68 68 68 67 67 68 68 68 67 67 67 67 66 64 65 63 63 63 63 61 62 62 61 61 61 62 61 62 62 63 64 66 66 66
34 35 38 41 44 44 47 51 63 65 67 67 68 68 68 67 68 67 66 67 68 67 66 65 64 63 62 62 63 62 62 61 60 60 60 61 61 60 60 62 63 64 65
32 34 36 39 41 42 45 49 53 65 65 67 67 67 68 68 67 67 67 67 67 67 66 65 64 64 63 61 60 60 62 62 62 61 61 61 62 61 61 60 62 62 62
31 32 35 37 38 41 42 45 49 52 62 64 65 66 66 68 67 67 67 67 67 66 66 65 64 63 62 63 60 60 61 62 61 62 61 61 61 61 61 60 60 61 61
31 32 32 35 37 39 42 43 47 50 62 63 64 64 66 66 68 66 66 66 67 66 66 65 63 62 62 63 60 58 57 58 61 61 62 61 60 61 61 62 61 61 61
30 31 32 33 36 38 41 43 47 50 57 61 63 63 64 65 66 67 65 66 66 65 65 65 64 62 61 62 61 58 55 54 57 60 61 62 61 61 61 61 62 62 62
29 30 32 32 35 37 39 42 45 48 46 42 54 60 61 63 65 67 66 66 65 65 65 65 65 63 63 61 61 61 59 58 55 55 61 61 61 61 61 61 60 62 62
30 30 31 32 35 36 37 41 44 47 51 51 57 61 62 63 65 65 66 66 66 65 65 66 65 63 63 62 62 60 60 59 58 56 54 58 62 62 63 62 61 61 60
30 30 31 31 32 36 37 40 43 45 48 51 52 56 60 61 63 64 65 65 66 65 64 65 66 64 63 62 62 60 59 59 59 58 56 55 57 60 62 62 62 62 61

GFSSE_sfc_dewp_144.txt.gz
Dewpoint
69 71 72 73 73 72 72 72 72 72 73 73 73 73 73 73 73 73 73 73 73 73 71 71 73 73 71 71 72 72 72 71 72 72 72 71 71 71 71 71 70 69 71
70 72 72 73 73 72 72 72 72 72 73 73 73 73 73 73 73 73 73 73 73 73 71 72 73 72 71 71 72 71 71 71 71 71 72 71 71 71 71 71 70 70 70
70 71 72 72 73 73 73 73 72 73 73 73 73 73 73 73 73 73 73 73 74 73 72 72 72 71 71 71 71 71 70 70 71 71 70 69 69 71 70 71 71 70 70
70 71 72 72 73 73 72 72 73 73 73 73 73 73 73 73 73 73 73 72 73 73 72 72 71 71 71 71 70 71 70 70 68 68 67 68 68 70 70 70 70 70 69
69 70 71 71 72 73 72 72 72 73 72 72 72 73 73 73 73 73 72 72 73 73 73 72 71 71 71 70 70 70 70 68 67 66 66 67 68 69 69 70 70 70 69
68 70 70 70 71 72 73 73 72 72 72 72 72 73 73 73 73 73 72 72 73 73 73 72 71 71 69 69 69 69 68 67 63 63 65 68 68 69 69 70 69 69 68
69 69 70 70 71 72 73 73 72 72 71 71 72 72 73 73 73 72 71 72 72 73 73 72 70 70 69 68 68 68 67 67 63 64 64 66 68 70 68 69 69 69 69
69 70 70 70 71 71 72 72 71 71 71 71 71 72 72 72 71 71 71 71 72 72 71 70 69 69 68 68 67 66 66 66 65 64 66 66 69 70 69 69 69 69 69
69 69 69 70 71 70 70 70 70 70 70 70 70 70 71 71 70 71 71 71 71 71 70 69 68 68 68 67 66 65 65 66 64 65 65 66 70 70 69 68 69 69 69
69 68 68 68 69 70 71 70 69 69 69 69 70 70 69 69 70 70 70 71 71 70 70 69 68 67 67 66 65 65 64 64 64 65 66 66 69 69 68 68 68 69 68
70 69 68 68 68 68 69 70 70 70 69 69 70 69 68 70 70 70 70 70 70 70 69 68 68 67 66 65 65 64 63 62 64 65 65 66 69 69 69 68 69 68 67
25 52 68 67 67 68 69 69 70 71 71 70 70 70 70 69 69 70 69 69 69 69 68 67 67 66 66 64 64 64 61 62 64 64 65 66 69 69 68 68 69 68 67
39 41 43 52 62 67 67 68 68 69 69 69 70 70 70 69 69 69 69 69 69 68 67 66 66 65 64 63 63 62 62 62 64 64 65 66 69 69 69 68 68 68 67
37 39 42 46 50 51 67 68 68 69 69 68 69 69 69 69 69 69 68 68 68 68 66 66 65 64 64 64 63 63 62 62 63 63 64 64 66 68 68 68 67 67 67
35 36 37 41 46 50 52 61 68 68 69 69 69 70 70 69 68 68 68 68 67 67 65 65 64 64 64 63 64 63 62 62 64 64 64 64 65 67 68 68 67 67 66
33 34 35 38 41 46 48 50 52 68 68 68 69 69 69 69 68 67 67 68 67 67 65 65 64 64 63 63 63 64 63 62 63 63 63 64 63 65 66 68 67 67 66
32 33 34 36 38 42 43 46 50 54 66 68 69 69 69 69 68 67 67 67 68 67 65 64 64 64 63 63 63 63 63 62 62 63 62 63 64 63 64 66 67 67 67
31 31 33 34 36 38 40 43 46 51 55 65 68 69 69 68 68 67 67 67 68 66 65 64 63 63 63 62 62 62 63 61 61 62 62 62 63 63 63 64 65 66 66
31 31 32 33 34 36 39 42 45 48 51 58 67 67 68 68 67 67 66 67 68 66 65 64 63 63 62 62 62 62 62 61 59 61 62 61 61 62 62 62 63 64 65
30 30 32 32 33 35 38 40 43 45 48 51 60 66 65 67 67 67 66 67 67 66 65 64 63 63 62 62 62 61 62 62 60 60 61 61 61 60 61 61 62 63 62
30 30 30 32 33 34 37 38 39 42 44 49 52 61 65 65 67 67 66 66 67 66 65 64 64 63 62 62 59 59 60 62 61 61 60 60 61 61 60 60 60 61 62
30 30 30 30 32 33 35 36 38 41 46 48 51 55 64 64 65 65 66 66 66 66 66 65 64 63 62 62 59 58 56 58 60 60 61 60 60 61 61 60 60 60 61
29 30 30 30 31 32 34 37 38 41 44 48 50 51 59 64 64 64 65 67 66 66 65 65 64 63 61 61 61 57 54 54 55 58 60 61 60 60 61 61 61 60 60
30 30 30 31 31 32 34 36 37 39 40 44 46 50 52 55 63 64 64 65 67 66 65 65 65 64 62 60 59 60 57 56 54 53 58 60 61 60 60 61 62 62 61
30 30 30 31 31 32 33 35 37 39 41 44 46 50 51 53 60 62 62 64 65 66 65 65 65 64 63 62 61 60 57 57 56 54 54 57 59 61 61 61 62 62 62
30 30 30 30 32 33 33 35 36 38 39 42 44 46 51 53 56 60 62 63 63 64 65 65 65 65 63 62 62 61 60 58 57 56 54 54 56 59 61 62 61 62 62